owner,sensor,date,latitude,longitude,vertical_datum,wind_speed,wind_to_direction,wind_speed_of_gust,qcFlag 
TABS,ioos:station:wmo:42044:1,2017-12-01T00:00:00Z,26.1914,-97.0507,0.0,7.173290737,66.93738585,8.05,'11111222,11111222,11111222' 
TABS,ioos:station:wmo:42044:1,2017-12-01T00:30:00Z,26.1914,-97.0507,0.0,7.136567803,68.72002442,8.45,'11111222,11111222,11111222' 
TABS,ioos:station:wmo:42044:1,2017-12-01T01:00:00Z,26.1914,-97.0507,0.0,7.550801282,73.7727997,8.81,'11111222,11111222,11111222' 
TABS,ioos:station:wmo:42044:1,2017-12-01T01:30:00Z,26.1914,-97.0507,0.0,6.838720641,69.36513509,7.95,'11111222,11111222,11111222' 
TABS,ioos:station:wmo:42044:1,2017-12-01T02:00:00Z,26.1914,-97.0507,0.0,7.41247597,71.27135351,8.84,'11111222,11111222,11111222' 
TABS,ioos:station:wmo:42044:1,2017-12-01T02:30:00Z,26.1914,-97.0507,0.0,6.919544783,69.70524832,8.26,'11111222,11111222,11111222' 
TABS,ioos:station:wmo:42044:1,2017-12-01T03:00:00Z,26.1914,-97.0507,0.0,6.877972085,71.43295947,8.11,'11111222,11111222,11111222' 
TABS,ioos:station:wmo:42044:1,2017-12-01T03:30:00Z,26.1914,-97.0507,0.0,6.524423346,70.75931017,7.83,'11111222,11111222,11111222' 
TABS,ioos:station:wmo:42044:1,2017-12-01T04:00:00Z,26.1914,-97.0507,0.0,6.828067076,67.98007123,8.45,'11111222,11111222,11111222' 
TABS,ioos:station:wmo:42044:1,2017-12-01T04:30:00Z,26.1914,-97.0507,0.0,6.267639109,69.74316428,8.11,'11111222,11111222,11111222' 
TABS,ioos:station:wmo:42044:1,2017-12-01T05:00:00Z,26.1914,-97.0507,0.0,6.382382,70.59942676,7.88,'11111222,11111222,11111222' 
TABS,ioos:station:wmo:42044:1,2017-12-01T05:30:00Z,26.1914,-97.0507,0.0,5.907122819,69.69333351,7.55,'11111222,11111222,11111222' 
TABS,ioos:station:wmo:42044:1,2017-12-01T06:00:00Z,26.1914,-97.0507,0.0,5.335203839,73.67068171,6.85,'11111222,11111222,11111222' 
TABS,ioos:station:wmo:42044:1,2017-12-01T06:30:00Z,26.1914,-97.0507,0.0,5.517653487,77.65101048,6.9,'11111222,11111222,11111222' 
TABS,ioos:station:wmo:42044:1,2017-12-01T07:00:00Z,26.1914,-97.0507,0.0,5.24900943,76.78409096,6.24,'11111222,11111222,11111222' 
TABS,ioos:station:wmo:42044:1,2017-12-01T07:30:00Z,26.1914,-97.0507,0.0,5.197547499,75.85642382,6.51,'11111222,11111222,11111222' 
TABS,ioos:station:wmo:42044:1,2017-12-01T08:00:00Z,26.1914,-97.0507,0.0,5.471709057,78.40217044,6.85,'11111222,11111222,11111222' 
TABS,ioos:station:wmo:42044:1,2017-12-01T08:30:00Z,26.1914,-97.0507,0.0,4.964000403,83.28975797,5.87,'11111222,11111222,11111222' 
TABS,ioos:station:wmo:42044:1,2017-12-01T09:00:00Z,26.1914,-97.0507,0.0,4.730919572,83.44541382,5.8,'11111222,11111222,11111222' 
TABS,ioos:station:wmo:42044:1,2017-12-01T09:30:00Z,26.1914,-97.0507,0.0,4.538127367,75.3203123,5.45,'11111222,11111222,11111222' 
TABS,ioos:station:wmo:42044:1,2017-12-01T10:00:00Z,26.1914,-97.0507,0.0,3.959760094,79.2288435,5.04,'11111222,11111222,11111222' 
TABS,ioos:station:wmo:42044:1,2017-12-01T10:30:00Z,26.1914,-97.0507,0.0,4.055712021,78.91131855,4.61,'11111222,11111222,11111222' 
TABS,ioos:station:wmo:42044:1,2017-12-01T11:00:00Z,26.1914,-97.0507,0.0,4.161586236,78.63567152,5.08,'11111222,11111222,11111222' 
TABS,ioos:station:wmo:42044:1,2017-12-01T11:30:00Z,26.1914,-97.0507,0.0,3.716557547,81.95670366,4.77,'11111222,11111222,11111222' 
TABS,ioos:station:wmo:42044:1,2017-12-01T12:00:00Z,26.1914,-97.0507,0.0,3.905188856,68.36168845,4.66,'11111222,11111222,11111222' 
TABS,ioos:station:wmo:42044:1,2017-12-01T12:30:00Z,26.1914,-97.0507,0.0,4.237747043,67.67097492,5.29,'11111222,11111222,11111222' 
TABS,ioos:station:wmo:42044:1,2017-12-01T13:00:00Z,26.1914,-97.0507,0.0,4.197153798,61.54171287,5.49,'11111222,11111222,11111222' 
TABS,ioos:station:wmo:42044:1,2017-12-01T13:30:00Z,26.1914,-97.0507,0.0,4.578132807,60.13058299,5.8,'11111222,11111222,11111222' 
TABS,ioos:station:wmo:42044:1,2017-12-01T14:00:00Z,26.1914,-97.0507,0.0,4.300430211,57.82479925,5.43,'11111222,11111222,11111222' 
TABS,ioos:station:wmo:42044:1,2017-12-01T14:30:00Z,26.1914,-97.0507,0.0,4.1759909,59.01236492,5.15,'11111222,11111222,11111222' 
TABS,ioos:station:wmo:42044:1,2017-12-01T15:00:00Z,26.1914,-97.0507,0.0,4.287773315,58.34838021,5.25,'11111222,11111222,11111222' 
TABS,ioos:station:wmo:42044:1,2017-12-01T15:30:00Z,26.1914,-97.0507,0.0,3.996861269,56.94574069,4.87,'11111222,11111222,11111222' 
TABS,ioos:station:wmo:42044:1,2017-12-01T16:00:00Z,26.1914,-97.0507,0.0,3.640947679,59.27878602,4.49,'11111222,11111222,11111222' 
TABS,ioos:station:wmo:42044:1,2017-12-01T16:30:00Z,26.1914,-97.0507,0.0,3.614249576,69.25803969,4.37,'11111222,11111222,11111222' 
TABS,ioos:station:wmo:42044:1,2017-12-01T17:00:00Z,26.1914,-97.0507,0.0,3.503255629,66.80104282,4.32,'11111222,11111222,11111222' 
TABS,ioos:station:wmo:42044:1,2017-12-01T17:30:00Z,26.1914,-97.0507,0.0,3.663072481,64.2740266,4.44,'11111222,11111222,11111222' 
TABS,ioos:station:wmo:42044:1,2017-12-01T18:00:00Z,26.1914,-97.0507,0.0,3.544643847,65.67607839,4.35,'11111222,11111222,11111222' 
TABS,ioos:station:wmo:42044:1,2017-12-01T18:30:00Z,26.1914,-97.0507,0.0,3.338562565,65.58408783,4.17,'11111222,11111222,11111222' 
TABS,ioos:station:wmo:42044:1,2017-12-01T19:00:00Z,26.1914,-97.0507,0.0,3.479324647,63.36094528,4.3,'11111222,11111222,11111222' 
TABS,ioos:station:wmo:42044:1,2017-12-01T19:30:00Z,26.1914,-97.0507,0.0,3.462730137,71.30305123,4.28,'11111222,11111222,11111222' 
TABS,ioos:station:wmo:42044:1,2017-12-01T20:00:00Z,26.1914,-97.0507,0.0,3.809580029,65.99133407,4.95,'11111222,11111222,11111222' 
TABS,ioos:station:wmo:42044:1,2017-12-01T20:30:00Z,26.1914,-97.0507,0.0,3.984833748,63.94901522,4.73,'11111222,11111222,11111222' 
TABS,ioos:station:wmo:42044:1,2017-12-01T21:00:00Z,26.1914,-97.0507,0.0,3.794588252,65.39322969,4.77,'11111222,11111222,11111222' 
TABS,ioos:station:wmo:42044:1,2017-12-01T21:30:00Z,26.1914,-97.0507,0.0,4.20437867,68.80557216,5.17,'11111222,11111222,11111222' 
TABS,ioos:station:wmo:42044:1,2017-12-01T22:00:00Z,26.1914,-97.0507,0.0,3.71597901,70.83327933,4.81,'11111222,11111222,11111222' 
TABS,ioos:station:wmo:42044:1,2017-12-01T22:30:00Z,26.1914,-97.0507,0.0,4.178241257,72.73557955,5.37,'11111222,11111222,11111222' 
TABS,ioos:station:wmo:42044:1,2017-12-01T23:00:00Z,26.1914,-97.0507,0.0,4.269543301,72.41343566,5.19,'11111222,11111222,11111222' 
TABS,ioos:station:wmo:42044:1,2017-12-01T23:30:00Z,26.1914,-97.0507,0.0,4.401931394,71.31771091,5.27,'11111222,11111222,11111222' 
TABS,ioos:station:wmo:42044:1,2017-12-02T00:00:00Z,26.1914,-97.0507,0.0,4.253998119,72.62952557,5.27,'11111222,11111222,11111222' 
TABS,ioos:station:wmo:42044:1,2017-12-02T00:30:00Z,26.1914,-97.0507,0.0,4.272446606,77.42716348,5.17,'11111222,11111222,11111222' 
TABS,ioos:station:wmo:42044:1,2017-12-02T01:00:00Z,26.1914,-97.0507,0.0,4.13319489,79.96753201,5.65,'11111222,11111222,11111222' 
TABS,ioos:station:wmo:42044:1,2017-12-02T01:30:00Z,26.1914,-97.0507,0.0,4.246151198,85.00062645,5.23,'11111222,11111222,11111222' 
TABS,ioos:station:wmo:42044:1,2017-12-02T02:00:00Z,26.1914,-97.0507,0.0,4.325598225,87.08426378,5.37,'11111222,11111222,11111222' 
TABS,ioos:station:wmo:42044:1,2017-12-02T02:30:00Z,26.1914,-97.0507,0.0,3.929287467,86.05941833,5.24,'11111222,11111222,11111222' 
TABS,ioos:station:wmo:42044:1,2017-12-02T03:00:00Z,26.1914,-97.0507,0.0,4.012804506,87.85734924,4.77,'11111222,11111222,11111222' 
TABS,ioos:station:wmo:42044:1,2017-12-02T03:30:00Z,26.1914,-97.0507,0.0,3.820994635,100.2515957,4.59,'11111222,11111222,11111222' 
TABS,ioos:station:wmo:42044:1,2017-12-02T04:00:00Z,26.1914,-97.0507,0.0,4.049456754,105.6153809,4.9,'11111222,11111222,11111222' 
TABS,ioos:station:wmo:42044:1,2017-12-02T04:30:00Z,26.1914,-97.0507,0.0,4.230957338,113.8391054,5.31,'11111222,11111222,11111222' 
TABS,ioos:station:wmo:42044:1,2017-12-02T05:00:00Z,26.1914,-97.0507,0.0,4.877140556,110.7764147,5.96,'11111222,11111222,11111222' 
TABS,ioos:station:wmo:42044:1,2017-12-02T05:30:00Z,26.1914,-97.0507,0.0,4.846947493,111.1651873,5.86,'11111222,11111222,11111222' 
TABS,ioos:station:wmo:42044:1,2017-12-02T06:00:00Z,26.1914,-97.0507,0.0,5.476586528,111.0829501,6.33,'11111222,11111222,11111222' 
TABS,ioos:station:wmo:42044:1,2017-12-02T06:30:00Z,26.1914,-97.0507,0.0,5.629653631,109.4008922,6.91,'11111222,11111222,11111222' 
TABS,ioos:station:wmo:42044:1,2017-12-02T07:00:00Z,26.1914,-97.0507,0.0,6.076989386,113.5703585,7.25,'11111222,11111222,11111222' 
TABS,ioos:station:wmo:42044:1,2017-12-02T07:30:00Z,26.1914,-97.0507,0.0,6.025827744,111.9253754,7.89,'11111222,11111222,11111222' 
TABS,ioos:station:wmo:42044:1,2017-12-02T08:00:00Z,26.1914,-97.0507,0.0,4.852236598,111.6482897,5.97,'11111222,11111222,11111222' 
TABS,ioos:station:wmo:42044:1,2017-12-02T08:30:00Z,26.1914,-97.0507,0.0,5.067741114,93.16770077,6.36,'11111222,11111222,11111222' 
TABS,ioos:station:wmo:42044:1,2017-12-02T09:00:00Z,26.1914,-97.0507,0.0,4.217155439,102.3228887,5.33,'11111222,11111222,11111222' 
TABS,ioos:station:wmo:42044:1,2017-12-02T09:30:00Z,26.1914,-97.0507,0.0,3.814616626,112.6664484,4.64,'11111222,11111222,11111222' 
TABS,ioos:station:wmo:42044:1,2017-12-02T10:00:00Z,26.1914,-97.0507,0.0,3.402425605,119.2021622,4.29,'11111222,11111222,11111222' 
TABS,ioos:station:wmo:42044:1,2017-12-02T10:30:00Z,26.1914,-97.0507,0.0,2.92227651,114.460545,3.62,'11111222,11111222,11111222' 
TABS,ioos:station:wmo:42044:1,2017-12-02T11:00:00Z,26.1914,-97.0507,0.0,2.289650628,111.5229707,2.92,'11111222,11111222,11111222' 
TABS,ioos:station:wmo:42044:1,2017-12-02T11:30:00Z,26.1914,-97.0507,0.0,2.366178353,112.8810046,2.91,'11111222,11111222,11111222' 
TABS,ioos:station:wmo:42044:1,2017-12-02T12:00:00Z,26.1914,-97.0507,0.0,2.283243307,108.9114568,3.17,'11111222,11111222,11111222' 
TABS,ioos:station:wmo:42044:1,2017-12-02T12:30:00Z,26.1914,-97.0507,0.0,2.014274063,102.0355495,2.52,'11111222,11111222,11111222' 
TABS,ioos:station:wmo:42044:1,2017-12-02T13:00:00Z,26.1914,-97.0507,0.0,2.798606796,111.1554724,3.24,'11111222,11111222,11111222' 
TABS,ioos:station:wmo:42044:1,2017-12-02T13:30:00Z,26.1914,-97.0507,0.0,3.114642837,112.8607912,3.75,'11111222,11111222,11111222' 
TABS,ioos:station:wmo:42044:1,2017-12-02T14:00:00Z,26.1914,-97.0507,0.0,2.8609439,121.8571303,3.58,'11111222,11111222,11111222' 
TABS,ioos:station:wmo:42044:1,2017-12-02T14:30:00Z,26.1914,-97.0507,0.0,2.563123095,112.9641403,3.28,'11111222,11111222,11111222' 
TABS,ioos:station:wmo:42044:1,2017-12-02T15:00:00Z,26.1914,-97.0507,0.0,3.21491835,102.393886,3.79,'11111222,11111222,11111222' 
TABS,ioos:station:wmo:42044:1,2017-12-02T15:30:00Z,26.1914,-97.0507,0.0,3.626306661,101.7751273,4.25,'11111222,11111222,11111222' 
TABS,ioos:station:wmo:42044:1,2017-12-02T16:00:00Z,26.1914,-97.0507,0.0,3.644859394,99.95374067,4.3,'11111222,11111222,11111222' 
TABS,ioos:station:wmo:42044:1,2017-12-02T16:30:00Z,26.1914,-97.0507,0.0,3.67049043,102.7493056,4.33,'11111222,11111222,11111222' 
TABS,ioos:station:wmo:42044:1,2017-12-02T17:00:00Z,26.1914,-97.0507,0.0,2.5616401,107.7280089,3.16,'11111222,11111222,11111222' 
TABS,ioos:station:wmo:42044:1,2017-12-02T17:30:00Z,26.1914,-97.0507,0.0,2.435159132,107.6912692,3.21,'11111222,11111222,11111222' 
TABS,ioos:station:wmo:42044:1,2017-12-02T18:00:00Z,26.1914,-97.0507,0.0,3.223864141,112.4288381,3.95,'11111222,11111222,11111222' 
TABS,ioos:station:wmo:42044:1,2017-12-02T18:30:00Z,26.1914,-97.0507,0.0,2.786485241,125.8009475,3.35,'11111222,11111222,11111222' 
TABS,ioos:station:wmo:42044:1,2017-12-02T19:00:00Z,26.1914,-97.0507,0.0,3.042515407,127.9248654,3.61,'11111222,11111222,11111222' 
TABS,ioos:station:wmo:42044:1,2017-12-02T19:30:00Z,26.1914,-97.0507,0.0,3.454533254,121.9881485,4.1,'11111222,11111222,11111222' 
TABS,ioos:station:wmo:42044:1,2017-12-02T20:00:00Z,26.1914,-97.0507,0.0,3.282834141,121.8022261,3.84,'11111222,11111222,11111222' 
TABS,ioos:station:wmo:42044:1,2017-12-02T20:30:00Z,26.1914,-97.0507,0.0,3.222204215,110.9102189,3.92,'11111222,11111222,11111222' 
TABS,ioos:station:wmo:42044:1,2017-12-02T21:00:00Z,26.1914,-97.0507,0.0,2.919263606,112.348477,3.57,'11111222,11111222,11111222' 
TABS,ioos:station:wmo:42044:1,2017-12-02T21:30:00Z,26.1914,-97.0507,0.0,3.144932432,110.2792176,3.78,'11111222,11111222,11111222' 
TABS,ioos:station:wmo:42044:1,2017-12-02T22:00:00Z,26.1914,-97.0507,0.0,3.278124464,116.2527493,4.01,'11111222,11111222,11111222' 
TABS,ioos:station:wmo:42044:1,2017-12-02T22:30:00Z,26.1914,-97.0507,0.0,3.532987404,116.56541,4.22,'11111222,11111222,11111222' 
TABS,ioos:station:wmo:42044:1,2017-12-02T23:00:00Z,26.1914,-97.0507,0.0,4.108637244,122.3752781,5.11,'11111222,11111222,11111222' 
TABS,ioos:station:wmo:42044:1,2017-12-02T23:30:00Z,26.1914,-97.0507,0.0,3.376581111,129.1106503,4.1,'11111222,11111222,11111222' 
TABS,ioos:station:wmo:42044:1,2017-12-03T00:00:00Z,26.1914,-97.0507,0.0,2.761394575,118.7929669,3.47,'11111222,11111222,11111222' 
TABS,ioos:station:wmo:42044:1,2017-12-03T00:30:00Z,26.1914,-97.0507,0.0,2.188355547,118.6735004,2.79,'11111222,11111222,11111222' 
TABS,ioos:station:wmo:42044:1,2017-12-03T01:00:00Z,26.1914,-97.0507,0.0,1.741321337,114.0630794,2.27,'11111222,11111222,11111222' 
TABS,ioos:station:wmo:42044:1,2017-12-03T01:30:00Z,26.1914,-97.0507,0.0,1.891692364,124.4464667,2.36,'11111222,11111222,11111222' 
TABS,ioos:station:wmo:42044:1,2017-12-03T02:00:00Z,26.1914,-97.0507,0.0,1.589370945,124.4902969,2.08,'11111222,11111222,11111222' 
TABS,ioos:station:wmo:42044:1,2017-12-03T02:30:00Z,26.1914,-97.0507,0.0,2.270682717,121.3102981,2.86,'11111222,11111222,11111222' 
TABS,ioos:station:wmo:42044:1,2017-12-03T03:00:00Z,26.1914,-97.0507,0.0,2.34326695,108.6672915,3.03,'11111222,11111222,11111222' 
TABS,ioos:station:wmo:42044:1,2017-12-03T03:30:00Z,26.1914,-97.0507,0.0,3.993657472,116.3087683,5.06,'11111222,11111222,11111222' 
TABS,ioos:station:wmo:42044:1,2017-12-03T04:00:00Z,26.1914,-97.0507,0.0,2.96,108.9250211,3.63,'11111222,11111222,11111222' 
TABS,ioos:station:wmo:42044:1,2017-12-03T04:30:00Z,26.1914,-97.0507,0.0,3.018774586,116.1410055,3.69,'11111222,11111222,11111222' 
TABS,ioos:station:wmo:42044:1,2017-12-03T05:00:00Z,26.1914,-97.0507,0.0,2.57200311,126.7811257,3.31,'11111222,11111222,11111222' 
TABS,ioos:station:wmo:42044:1,2017-12-03T05:30:00Z,26.1914,-97.0507,0.0,3.063151971,133.2806397,3.73,'11111222,11111222,11111222' 
TABS,ioos:station:wmo:42044:1,2017-12-03T06:00:00Z,26.1914,-97.0507,0.0,3.302801841,136.1043778,4.19,'11111222,11111222,11111222' 
TABS,ioos:station:wmo:42044:1,2017-12-03T06:30:00Z,26.1914,-97.0507,0.0,3.335880693,141.2063738,4.26,'11111222,11111222,11111222' 
TABS,ioos:station:wmo:42044:1,2017-12-03T07:00:00Z,26.1914,-97.0507,0.0,3.532732653,139.592517,4.31,'11111222,11111222,11111222' 
TABS,ioos:station:wmo:42044:1,2017-12-03T07:30:00Z,26.1914,-97.0507,0.0,3.426674773,141.9933318,4.39,'11111222,11111222,11111222' 
TABS,ioos:station:wmo:42044:1,2017-12-03T08:00:00Z,26.1914,-97.0507,0.0,3.536919564,136.6041747,4.11,'11111222,11111222,11111222' 
TABS,ioos:station:wmo:42044:1,2017-12-03T08:30:00Z,26.1914,-97.0507,0.0,3.678219678,138.8583424,4.57,'11111222,11111222,11111222' 
TABS,ioos:station:wmo:42044:1,2017-12-03T09:00:00Z,26.1914,-97.0507,0.0,3.612035437,142.8765994,4.24,'11111222,11111222,11111222' 
TABS,ioos:station:wmo:42044:1,2017-12-03T09:30:00Z,26.1914,-97.0507,0.0,3.77446685,150.6507945,4.53,'11111222,11111222,11111222' 
TABS,ioos:station:wmo:42044:1,2017-12-03T10:00:00Z,26.1914,-97.0507,0.0,3.522740411,147.1673367,4.1,'11111222,11111222,11111222' 
TABS,ioos:station:wmo:42044:1,2017-12-03T10:30:00Z,26.1914,-97.0507,0.0,3.818756342,144.2707589,4.54,'11111222,11111222,11111222' 
TABS,ioos:station:wmo:42044:1,2017-12-03T11:00:00Z,26.1914,-97.0507,0.0,4.268044049,150.3719547,5.29,'11111222,11111222,11111222' 
TABS,ioos:station:wmo:42044:1,2017-12-03T11:30:00Z,26.1914,-97.0507,0.0,3.961868246,149.6813852,4.82,'11111222,11111222,11111222' 
TABS,ioos:station:wmo:42044:1,2017-12-03T12:00:00Z,26.1914,-97.0507,0.0,3.516390195,150.1543483,4.15,'11111222,11111222,11111222' 
TABS,ioos:station:wmo:42044:1,2017-12-03T12:30:00Z,26.1914,-97.0507,0.0,3.600069444,153.4352214,4.41,'11111222,11111222,11111222' 
TABS,ioos:station:wmo:42044:1,2017-12-03T13:00:00Z,26.1914,-97.0507,0.0,4.277756421,151.5180913,5.12,'11111222,11111222,11111222' 
TABS,ioos:station:wmo:42044:1,2017-12-03T13:30:00Z,26.1914,-97.0507,0.0,4.198023344,142.9393233,5.14,'11111222,11111222,11111222' 
TABS,ioos:station:wmo:42044:1,2017-12-03T14:00:00Z,26.1914,-97.0507,0.0,4.315599611,146.531155,5.22,'11111222,11111222,11111222' 
TABS,ioos:station:wmo:42044:1,2017-12-03T14:30:00Z,26.1914,-97.0507,0.0,4.11428001,148.8215791,5.11,'11111222,11111222,11111222' 
TABS,ioos:station:wmo:42044:1,2017-12-03T15:00:00Z,26.1914,-97.0507,0.0,3.894226496,142.5124422,4.73,'11111222,11111222,11111222' 
TABS,ioos:station:wmo:42044:1,2017-12-03T15:30:00Z,26.1914,-97.0507,0.0,3.79189926,141.3168947,5.29,'11111222,11111222,11111222' 
TABS,ioos:station:wmo:42044:1,2017-12-03T16:00:00Z,26.1914,-97.0507,0.0,3.684901627,140.1748243,4.46,'11111222,11111222,11111222' 
TABS,ioos:station:wmo:42044:1,2017-12-03T16:30:00Z,26.1914,-97.0507,0.0,3.35477272,141.9006277,4.08,'11111222,11111222,11111222' 
TABS,ioos:station:wmo:42044:1,2017-12-03T17:00:00Z,26.1914,-97.0507,0.0,4.265172916,149.1056405,5.11,'11111222,11111222,11111222' 
TABS,ioos:station:wmo:42044:1,2017-12-03T17:30:00Z,26.1914,-97.0507,0.0,4.562192455,149.725764,5.59,'11111222,11111222,11111222' 
TABS,ioos:station:wmo:42044:1,2017-12-03T18:00:00Z,26.1914,-97.0507,0.0,5.117352831,145.7512575,6.21,'11111222,11111222,11111222' 
TABS,ioos:station:wmo:42044:1,2017-12-03T18:30:00Z,26.1914,-97.0507,0.0,5.210777293,149.9417147,6.45,'11111222,11111222,11111222' 
TABS,ioos:station:wmo:42044:1,2017-12-03T19:00:00Z,26.1914,-97.0507,0.0,5.436589004,151.549626,6.66,'11111222,11111222,11111222' 
TABS,ioos:station:wmo:42044:1,2017-12-03T19:30:00Z,26.1914,-97.0507,0.0,5.015994418,151.5447936,5.97,'11111222,11111222,11111222' 
TABS,ioos:station:wmo:42044:1,2017-12-03T20:00:00Z,26.1914,-97.0507,0.0,4.740232062,149.1609016,6.07,'11111222,11111222,11111222' 
TABS,ioos:station:wmo:42044:1,2017-12-03T20:30:00Z,26.1914,-97.0507,0.0,5.245693472,140.0269156,6.25,'11111222,11111222,11111222' 
TABS,ioos:station:wmo:42044:1,2017-12-03T21:00:00Z,26.1914,-97.0507,0.0,5.153843226,148.4073482,6.46,'11111222,11111222,11111222' 
TABS,ioos:station:wmo:42044:1,2017-12-03T21:30:00Z,26.1914,-97.0507,0.0,5.024430316,147.7652372,6.21,'11111222,11111222,11111222' 
TABS,ioos:station:wmo:42044:1,2017-12-03T22:00:00Z,26.1914,-97.0507,0.0,5.581979935,150.955644,7.49,'11111222,11111222,11111222' 
TABS,ioos:station:wmo:42044:1,2017-12-03T22:30:00Z,26.1914,-97.0507,0.0,5.055294255,151.9144553,6.25,'11111222,11111222,11111222' 
TABS,ioos:station:wmo:42044:1,2017-12-03T23:00:00Z,26.1914,-97.0507,0.0,5.336037856,148.0973376,6.37,'11111222,11111222,11111222' 
TABS,ioos:station:wmo:42044:1,2017-12-03T23:30:00Z,26.1914,-97.0507,0.0,5.116014073,143.2647904,6.14,'11111222,11111222,11111222' 
TABS,ioos:station:wmo:42044:1,2017-12-04T00:00:00Z,26.1914,-97.0507,0.0,5.732477649,143.8700435,6.96,'11111222,11111222,11111222' 
TABS,ioos:station:wmo:42044:1,2017-12-04T00:30:00Z,26.1914,-97.0507,0.0,4.952413553,143.8708508,6.26,'11111222,11111222,11111222' 
TABS,ioos:station:wmo:42044:1,2017-12-04T01:00:00Z,26.1914,-97.0507,0.0,5.445071166,144.2669013,6.49,'11111222,11111222,11111222' 
TABS,ioos:station:wmo:42044:1,2017-12-04T01:30:00Z,26.1914,-97.0507,0.0,5.289725891,151.3033729,6.75,'11111222,11111222,11111222' 
TABS,ioos:station:wmo:42044:1,2017-12-04T02:00:00Z,26.1914,-97.0507,0.0,4.737193262,148.2897753,5.75,'11111222,11111222,11111222' 
TABS,ioos:station:wmo:42044:1,2017-12-04T02:30:00Z,26.1914,-97.0507,0.0,5.727521279,144.4509869,7.44,'11111222,11111222,11111222' 
TABS,ioos:station:wmo:42044:1,2017-12-04T03:00:00Z,26.1914,-97.0507,0.0,6.086189284,142.6785203,7.52,'11111222,11111222,11111222' 
TABS,ioos:station:wmo:42044:1,2017-12-04T03:30:00Z,26.1914,-97.0507,0.0,5.89143446,144.3947835,6.91,'11111222,11111222,11111222' 
TABS,ioos:station:wmo:42044:1,2017-12-04T04:00:00Z,26.1914,-97.0507,0.0,5.96936345,147.2419925,7.35,'11111222,11111222,11111222' 
TABS,ioos:station:wmo:42044:1,2017-12-04T04:30:00Z,26.1914,-97.0507,0.0,5.971750162,145.6449515,7.29,'11111222,11111222,11111222' 
TABS,ioos:station:wmo:42044:1,2017-12-04T05:00:00Z,26.1914,-97.0507,0.0,6.20761629,145.5678264,7.35,'11111222,11111222,11111222' 
TABS,ioos:station:wmo:42044:1,2017-12-04T05:30:00Z,26.1914,-97.0507,0.0,6.895687058,145.4575337,8.93,'11111222,11111222,11111222' 
TABS,ioos:station:wmo:42044:1,2017-12-04T06:00:00Z,26.1914,-97.0507,0.0,7.005890379,146.4689978,8.28,'11111222,11111222,11111222' 
TABS,ioos:station:wmo:42044:1,2017-12-04T06:30:00Z,26.1914,-97.0507,0.0,6.468771135,150.8596449,8.31,'11111222,11111222,11111222' 
TABS,ioos:station:wmo:42044:1,2017-12-04T07:00:00Z,26.1914,-97.0507,0.0,6.247639554,150.3577732,7.33,'11111222,11111222,11111222' 
TABS,ioos:station:wmo:42044:1,2017-12-04T07:30:00Z,26.1914,-97.0507,0.0,5.891230771,152.1737899,6.86,'11111222,11111222,11111222' 
TABS,ioos:station:wmo:42044:1,2017-12-04T08:00:00Z,26.1914,-97.0507,0.0,4.916960443,155.1030492,5.98,'11111222,11111222,11111222' 
TABS,ioos:station:wmo:42044:1,2017-12-04T08:30:00Z,26.1914,-97.0507,0.0,4.31723291,160.5160513,5.1,'11111222,11111222,11111222' 
TABS,ioos:station:wmo:42044:1,2017-12-04T09:00:00Z,26.1914,-97.0507,0.0,4.827463102,150.4614973,6.02,'11111222,11111222,11111222' 
TABS,ioos:station:wmo:42044:1,2017-12-04T09:30:00Z,26.1914,-97.0507,0.0,5.017270174,146.2152041,6.19,'11111222,11111222,11111222' 
TABS,ioos:station:wmo:42044:1,2017-12-04T10:00:00Z,26.1914,-97.0507,0.0,5.889550068,148.4692612,7.58,'11111222,11111222,11111222' 
TABS,ioos:station:wmo:42044:1,2017-12-04T10:30:00Z,26.1914,-97.0507,0.0,6.959899425,149.7142155,8.51,'11111222,11111222,11111222' 
TABS,ioos:station:wmo:42044:1,2017-12-04T11:00:00Z,26.1914,-97.0507,0.0,6.454215677,151.0922543,7.64,'11111222,11111222,11111222' 
TABS,ioos:station:wmo:42044:1,2017-12-04T11:30:00Z,26.1914,-97.0507,0.0,6.77726346,150.1819966,8.09,'11111222,11111222,11111222' 
TABS,ioos:station:wmo:42044:1,2017-12-04T12:00:00Z,26.1914,-97.0507,0.0,6.24296404,149.6976006,7.82,'11111222,11111222,11111222' 
TABS,ioos:station:wmo:42044:1,2017-12-04T12:30:00Z,26.1914,-97.0507,0.0,6.780833282,152.4148923,8.78,'11111222,11111222,11111222' 
TABS,ioos:station:wmo:42044:1,2017-12-04T13:00:00Z,26.1914,-97.0507,0.0,6.081726728,149.6828119,7.29,'11111222,11111222,11111222' 
TABS,ioos:station:wmo:42044:1,2017-12-04T13:30:00Z,26.1914,-97.0507,0.0,5.709579669,149.7077273,7.05,'11111222,11111222,11111222' 
TABS,ioos:station:wmo:42044:1,2017-12-04T14:00:00Z,26.1914,-97.0507,0.0,6.468941181,154.9405696,8.36,'11111222,11111222,11111222' 
TABS,ioos:station:wmo:42044:1,2017-12-04T14:30:00Z,26.1914,-97.0507,0.0,5.55793127,157.9117061,6.65,'11111222,11111222,11111222' 
TABS,ioos:station:wmo:42044:1,2017-12-04T15:00:00Z,26.1914,-97.0507,0.0,4.560317971,174.5896706,5.49,'11111222,11111222,11111222' 
TABS,ioos:station:wmo:42044:1,2017-12-04T15:30:00Z,26.1914,-97.0507,0.0,5.046028141,172.255518,6.04,'11111222,11111222,11111222' 
TABS,ioos:station:wmo:42044:1,2017-12-04T16:00:00Z,26.1914,-97.0507,0.0,4.41099762,172.1824119,5.6,'11111222,11111222,11111222' 
TABS,ioos:station:wmo:42044:1,2017-12-04T16:30:00Z,26.1914,-97.0507,0.0,3.633414372,171.1341784,4.62,'11111222,11111222,11111222' 
TABS,ioos:station:wmo:42044:1,2017-12-04T17:00:00Z,26.1914,-97.0507,0.0,3.666742423,174.5228545,4.45,'11111222,11111222,11111222' 
TABS,ioos:station:wmo:42044:1,2017-12-04T17:30:00Z,26.1914,-97.0507,0.0,4.429954853,174.5598911,5.63,'11111222,11111222,11111222' 
TABS,ioos:station:wmo:42044:1,2017-12-04T18:00:00Z,26.1914,-97.0507,0.0,5.107142058,176.9697407,6.32,'11111222,11111222,11111222' 
TABS,ioos:station:wmo:42044:1,2017-12-04T18:30:00Z,26.1914,-97.0507,0.0,5.61092684,176.4238844,6.73,'11111222,11111222,11111222' 